(230866) = 2004 RM189

Discovered at Socorro on 2004-09-10 by LINEAR.

Orbit

Orbit type: Main Belt

Note: WebGL enabled browser required.

epoch2024-03-31.0
epoch JD2460400.5
perihelion date2022-10-24.83274
perihelion JD2459877.33274
argument of perihelion (°)113.46223
ascending node (°)327.36671
inclination (°)12.50760
eccentricity0.1398107
perihelion distance (AU)2.2929745
Tisserand w.r.t. Jupiter3.3
ΔV w.r.t. Earth (km/sec)10.3
semimajor axis (AU)2.6656627
mean anomaly (°)118.47770
mean daily motion (°/day)0.22646240
aphelion distance (AU)3.038
period (years)4.35
P-vector [x]0.14764263
P-vector [y]0.80990893
P-vector [z]0.56766995
Q-vector [x]-0.98212139
Q-vector [y]0.18783011
Q-vector [z]-0.01254654
absolute magnitude15.48
phase slope0.15
uncertainty0
referenceMPEC 2024-C40
observations used758
oppositions13
arc length (days)8152
first opposition used2000
last opposition used2023
residual rms (arc-secs)0.72
perturbers coarse indicatorM-v
perturbers precise indicator003Ek
first observation date used2000-12-17.0
last observation date used2023-04-13.0
computer nameMPCLINUX
JD of orbit computation2456760.817526
perihelion JD uncertainty (days)1.1181E-04
argument of perihelion uncertainty (°)3.6344E-05
ascending node uncertainty (°)2.2375E-05
inclination uncertainty (°)7.5094E-06
eccentricity uncertainty 4.9404E-08
perihelion distance uncertainty (AU)1.3986E-07
Minimum Orbit Intersection Distances (in AU)
for orbit epoch: 2460200.5, reference: E2024-C40
Mercury1.98762
Venus1.59096
Earth1.33994
Mars0.73467
Jupiter2.20978
Saturn6.76686
Uranus15.802
Neptune27.2722

Observations

773 total observations over interval: 2000 12 17.23484 – 2023 04 13.163244
These data are available for download (format description).

Date (UT) J2000 RA J2000 Dec Magn Location Ref
2000 12 17.23484 03 25 00.46 +39 34 31.3   704 – Lincoln Laboratory ETS, New Mexico MPS 406995
2000 12 17.25031 03 24 59.73 +39 34 23.9   704 – Lincoln Laboratory ETS, New Mexico MPS 406995
2000 12 17.26591 03 24 59.10 +39 34 16.5   704 – Lincoln Laboratory ETS, New Mexico MPS 406995
2000 12 17.28098 03 24 58.51 +39 34 08.5   704 – Lincoln Laboratory ETS, New Mexico MPS 406995
2000 12 17.29753 03 24 57.77 +39 34 01.0   704 – Lincoln Laboratory ETS, New Mexico MPS 406995
2004 09 10.28896 00 43 16.12 +17 59 05.5 19.2   704 – Lincoln Laboratory ETS, New Mexico MPS 113230
2004 09 10.30018 00 43 15.58 +17 59 07.3 19.8   704 – Lincoln Laboratory ETS, New Mexico MPS 113230
2004 09 10.31141 00 43 15.12 +17 59 09.6 19.4   704 – Lincoln Laboratory ETS, New Mexico MPS 113230
2004 09 10.32264 00 43 14.54 +17 59 11.6 19.4   704 – Lincoln Laboratory ETS, New Mexico MPS 113230
2004 09 10.33387 00 43 14.01 +17 59 14.0 19.3   704 – Lincoln Laboratory ETS, New Mexico MPS 113230
2004 09 13.29289 00 40 54.75 +18 07 07.6 18.9   704 – Lincoln Laboratory ETS, New Mexico MPS 113230
2004 09 13.30471 00 40 54.18 +18 07 09.4 19.1   704 – Lincoln Laboratory ETS, New Mexico MPS 113230
2004 09 13.31646 00 40 53.57 +18 07 11.8 19.7   704 – Lincoln Laboratory ETS, New Mexico MPS 113230
2004 09 13.32838 00 40 52.93 +18 07 12.3 20.0   704 – Lincoln Laboratory ETS, New Mexico MPS 113230
2004 09 13.34011 00 40 52.37 +18 07 14.4 19.8   704 – Lincoln Laboratory ETS, New Mexico MPS 113230
2004 09 18.30190 00 36 35.03 +18 16 21.6 19.1   704 – Lincoln Laboratory ETS, New Mexico MPS 114526
2004 09 18.31379 00 36 34.30 +18 16 22.4 19.3   704 – Lincoln Laboratory ETS, New Mexico MPS 114526
2004 09 18.32568 00 36 33.68 +18 16 22.7 19.3   704 – Lincoln Laboratory ETS, New Mexico MPS 114526
2004 09 18.33757 00 36 33.01 +18 16 24.4 19.0   704 – Lincoln Laboratory ETS, New Mexico MPS 114526
2004 09 18.34946 00 36 32.30 +18 16 25.4 19.7   704 – Lincoln Laboratory ETS, New Mexico MPS 114526
2004 10 06.38025 00 18 39.07 +18 07 02.0 18.5   644 – Palomar Mountain/NEAT MPS 115820
2004 10 06.40172 00 18 37.73 +18 06 59.1 18.6   644 – Palomar Mountain/NEAT MPS 115820
2004 10 06.43049 00 18 35.94 +18 06 55.3 18.6   644 – Palomar Mountain/NEAT MPS 115820
2004 10 09.21388 00 15 49.09 +18 00 09.3 18.5 R 699 – Lowell Observatory-LONEOS MPS 116700
2004 10 09.23016 00 15 48.10 +18 00 07.2   699 – Lowell Observatory-LONEOS MPS 116700
2004 10 09.24637 00 15 47.10 +18 00 04.0   699 – Lowell Observatory-LONEOS MPS 116700
2004 10 09.26261 00 15 46.12 +18 00 01.9   699 – Lowell Observatory-LONEOS MPS 116700
2004 10 10.20297 00 14 50.56 +17 57 28.3 18.6   704 – Lincoln Laboratory ETS, New Mexico MPS 116700
2004 10 10.21388 00 14 49.90 +17 57 26.9 19.1   704 – Lincoln Laboratory ETS, New Mexico MPS 116700
2004 10 10.22481 00 14 49.25 +17 57 24.9 19.4   704 – Lincoln Laboratory ETS, New Mexico MPS 116700
2004 10 10.23573 00 14 48.58 +17 57 23.0 19.1   704 – Lincoln Laboratory ETS, New Mexico MPS 116700
2004 10 10.24665 00 14 47.92 +17 57 21.7 19.1   704 – Lincoln Laboratory ETS, New Mexico MPS 116700
2004 10 15.24950 00 10 02.99 +17 41 49.8 18.5   704 – Lincoln Laboratory ETS, New Mexico MPS 117650
2004 10 15.26046 00 10 02.33 +17 41 46.4 19.0   704 – Lincoln Laboratory ETS, New Mexico MPS 117650
2004 10 15.27140 00 10 01.71 +17 41 45.0 19.4   704 – Lincoln Laboratory ETS, New Mexico MPS 117650
2004 10 15.28235 00 10 01.09 +17 41 42.7 19.2   704 – Lincoln Laboratory ETS, New Mexico MPS 117650
2004 10 15.29331 00 10 00.49 +17 41 40.9 19.1   704 – Lincoln Laboratory ETS, New Mexico MPS 117650
2004 11 04.21198 23 56 18.03 +16 25 30.0 18.8 R 703 – Catalina Sky Survey MPS 118445
2004 11 04.22162 23 56 17.79 +16 25 28.0 19.1 R 703 – Catalina Sky Survey MPS 118445
2004 11 04.23127 23 56 17.53 +16 25 25.4 18.6 R 703 – Catalina Sky Survey MPS 118445
2004 11 04.24093 23 56 17.25 +16 25 24.2 18.8 R 703 – Catalina Sky Survey MPS 118445
2005 10 22.46412 10 01 34.26 +16 47 48.6 20.3 V 691 – Steward Observatory, Kitt Peak-Spacewatch MPS 149552
2005 10 22.47662 10 01 35.33 +16 47 41.0 20.3 V 691 – Steward Observatory, Kitt Peak-Spacewatch MPS 149552
2005 10 22.48900 10 01 36.43 +16 47 33.8 20.3 V 691 – Steward Observatory, Kitt Peak-Spacewatch MPS 149552
2005 10 29.44360 10 11 31.62 +15 39 40.0 20.4 V 691 – Steward Observatory, Kitt Peak-Spacewatch MPS 149552
2005 10 29.45605 10 11 32.66 +15 39 32.7 20.3 V 691 – Steward Observatory, Kitt Peak-Spacewatch MPS 149552
2005 10 29.46843 10 11 33.69 +15 39 24.8 20.4 V 691 – Steward Observatory, Kitt Peak-Spacewatch MPS 149552
2005 12 25.47706 11 04 01.02 +07 44 59.1 19.9 V 703 – Catalina Sky Survey MPS 156586
2005 12 25.48618 11 04 01.23 +07 44 56.4 19.9 V 703 – Catalina Sky Survey MPS 156586
2005 12 25.49528 11 04 01.38 +07 44 51.4 21.1 V 703 – Catalina Sky Survey MPS 156586
2005 12 25.50436 11 04 01.52 +07 44 49.5 19.6 V 703 – Catalina Sky Survey MPS 156586
2006 01 22.39950 11 02 05.26 +05 43 10.4 19.5 V 691 – Steward Observatory, Kitt Peak-Spacewatch MPS 160433
2006 01 22.41678 11 02 04.73 +05 43 07.7 19.5 V 691 – Steward Observatory, Kitt Peak-Spacewatch MPS 160433
2006 01 22.43406 11 02 04.20 +05 43 05.1 19.5 V 691 – Steward Observatory, Kitt Peak-Spacewatch MPS 160433
2006 01 23.34873 11 01 37.34 +05 40 46.6 19.3 V 703 – Catalina Sky Survey MPS 160433
2006 01 23.35521 11 01 37.09 +05 40 46.0 18.6 V 703 – Catalina Sky Survey MPS 160433
2006 01 23.36167 11 01 36.94 +05 40 46.4 18.9 V 703 – Catalina Sky Survey MPS 160433
2006 01 23.36813 11 01 36.69 +05 40 44.6 18.7 V 703 – Catalina Sky Survey MPS 160433
2006 01 23.49160 11 01 32.80 +05 40 26.7 19.1 V G96 – Mt. Lemmon Survey MPS 160433
2006 01 23.50056 11 01 32.52 +05 40 25.5 19.1 V G96 – Mt. Lemmon Survey MPS 160433
2006 01 23.50957 11 01 32.19 +05 40 24.3 19.1 V G96 – Mt. Lemmon Survey MPS 160433
2006 01 23.51857 11 01 31.90 +05 40 22.9 19.1 V G96 – Mt. Lemmon Survey MPS 160433
2006 01 24.42942 11 01 03.65 +05 38 14.1 18.7 R 699 – Lowell Observatory-LONEOS MPS 161794
2006 01 24.44586 11 01 03.00 +05 38 12.1   699 – Lowell Observatory-LONEOS MPS 161794
2006 01 24.46231 11 01 02.46 +05 38 10.3   699 – Lowell Observatory-LONEOS MPS 161795
2006 01 26.38074 10 59 57.87 +05 34 00.7 19.3 V 691 – Steward Observatory, Kitt Peak-Spacewatch MPS 160433
2006 01 26.39809 10 59 57.23 +05 33 58.6 19.4 V 691 – Steward Observatory, Kitt Peak-Spacewatch MPS 160433
2006 01 26.41544 10 59 56.56 +05 33 56.5 19.3 V 691 – Steward Observatory, Kitt Peak-Spacewatch MPS 160433
2006 01 27.40981 10 59 20.59 +05 31 58.9 19.6   704 – Lincoln Laboratory ETS, New Mexico MPS 161795
2006 01 27.42251 10 59 20.08 +05 31 57.2 19.9   704 – Lincoln Laboratory ETS, New Mexico MPS 161795
2006 01 27.43512 10 59 19.44 +05 31 55.5 19.8   704 – Lincoln Laboratory ETS, New Mexico MPS 161795
2006 01 27.46054 10 59 18.52 +05 31 53.6 19.9   704 – Lincoln Laboratory ETS, New Mexico MPS 161795
2006 01 30.40592 10 57 22.39 +05 26 49.8 19.3 V 691 – Steward Observatory, Kitt Peak-Spacewatch MPS 161795
2006 01 30.42318 10 57 21.62 +05 26 48.4 19.4 V 691 – Steward Observatory, Kitt Peak-Spacewatch MPS 161795
2006 01 30.44044 10 57 20.86 +05 26 47.0 19.4 V 691 – Steward Observatory, Kitt Peak-Spacewatch MPS 161795
2006 02 06.32591 10 51 59.07 +05 19 05.2 18.6 R 699 – Lowell Observatory-LONEOS MPS 255216
2006 02 06.34783 10 51 57.87 +05 19 03.7   699 – Lowell Observatory-LONEOS MPS 255216
2006 02 06.36980 10 51 56.68 +05 19 02.4   699 – Lowell Observatory-LONEOS MPS 255216
2006 02 06.39174 10 51 55.52 +05 19 01.9   699 – Lowell Observatory-LONEOS MPS 255216
2006 02 22.28754 10 36 25.38 +05 18 48.2 18.5 V 703 – Catalina Sky Survey MPS 163815
2006 02 22.29450 10 36 24.91 +05 18 48.3 18.7 V 703 – Catalina Sky Survey MPS 163815
2006 02 22.30150 10 36 24.48 +05 18 48.4 18.6 V 703 – Catalina Sky Survey MPS 163815
2006 02 22.30855 10 36 24.01 +05 18 48.9 18.6 V 703 – Catalina Sky Survey MPS 163815
2006 02 22.31858 10 36 23.39 +05 18 48.4 18.2 R 699 – Lowell Observatory-LONEOS MPS 163815
2006 02 22.33869 10 36 22.11 +05 18 48.9   699 – Lowell Observatory-LONEOS MPS 163815
2006 02 22.35879 10 36 20.76 +05 18 50.1   699 – Lowell Observatory-LONEOS MPS 163815
